TimeCST,TemperatureF,Dew PointF,Humidity,Sea Level PressureIn,VisibilityMPH,Wind Direction,Wind SpeedMPH,Gust SpeedMPH,PrecipitationIn,Events,Conditions,WindDirDegrees,DateUTC
12:15 AM,45.1,26.8,49,29.91,10.0,SSW,16.1,-,N/A,,Clear,200,2011-11-19 06:15:00
12:35 AM,44.8,27.0,50,29.91,10.0,SSW,15.0,-,N/A,,Clear,200,2011-11-19 06:35:00
12:55 AM,44.8,27.1,50,29.90,10.0,SSW,15.0,-,N/A,,Clear,200,2011-11-19 06:55:00
1:15 AM,44.8,27.3,50,29.90,10.0,SSW,15.0,-,N/A,,Clear,200,2011-11-19 07:15:00
1:35 AM,45.5,27.5,49,29.90,10.0,SSW,15.0,-,N/A,,Clear,200,2011-11-19 07:35:00
1:55 AM,45.7,27.3,49,29.90,10.0,SSW,13.8,-,N/A,,Clear,200,2011-11-19 07:55:00
2:15 AM,45.5,27.5,49,29.90,10.0,SSW,13.8,19.6,N/A,,Clear,200,2011-11-19 08:15:00
2:35 AM,45.7,27.5,49,29.90,10.0,SSW,12.7,-,N/A,,Clear,200,2011-11-19 08:35:00
2:55 AM,45.7,27.5,49,29.89,10.0,SSW,12.7,-,N/A,,Clear,200,2011-11-19 08:55:00
3:15 AM,45.5,27.7,50,29.88,10.0,SSW,16.1,-,N/A,,Clear,200,2011-11-19 09:15:00
3:35 AM,45.7,28.0,50,29.88,10.0,SSW,13.8,-,N/A,,Clear,200,2011-11-19 09:35:00
3:55 AM,45.7,28.0,50,29.88,10.0,SSW,13.8,-,N/A,,Clear,200,2011-11-19 09:55:00
4:15 AM,45.7,27.9,50,29.88,10.0,SSW,17.3,21.9,N/A,,Clear,200,2011-11-19 10:15:00
4:35 AM,44.6,28.2,53,29.88,10.0,SSW,15.0,-,N/A,,Clear,200,2011-11-19 10:35:00
4:55 AM,44.6,28.4,53,29.88,10.0,South,12.7,-,N/A,,Clear,190,2011-11-19 10:55:00
5:15 AM,43.9,29.1,56,29.87,10.0,South,11.5,-,N/A,,Clear,190,2011-11-19 11:15:00
5:35 AM,43.9,29.8,58,29.87,10.0,South,15.0,-,N/A,,Mostly Cloudy,180,2011-11-19 11:35:00
5:55 AM,44.6,30.2,57,29.86,10.0,South,13.8,-,N/A,,Overcast,190,2011-11-19 11:55:00
6:15 AM,44.6,30.7,58,29.86,10.0,South,12.7,-,N/A,,Overcast,180,2011-11-19 12:15:00
6:35 AM,45.5,31.1,57,29.86,10.0,South,11.5,-,N/A,,Overcast,190,2011-11-19 12:35:00
6:55 AM,46.4,31.8,57,29.87,10.0,South,13.8,17.3,N/A,,Overcast,180,2011-11-19 12:55:00
7:15 AM,46.9,32.0,56,29.87,10.0,South,11.5,-,N/A,,Overcast,180,2011-11-19 13:15:00
7:35 AM,47.7,32.0,55,29.86,10.0,South,11.5,-,N/A,,Overcast,180,2011-11-19 13:35:00
7:55 AM,48.2,32.0,54,29.86,10.0,South,9.2,-,N/A,,Overcast,180,2011-11-19 13:55:00
8:15 AM,48.2,32.0,54,29.86,10.0,South,11.5,-,N/A,,Overcast,180,2011-11-19 14:15:00
8:35 AM,48.4,32.4,54,29.86,10.0,South,12.7,-,N/A,,Overcast,180,2011-11-19 14:35:00
8:55 AM,47.3,34.9,62,29.86,10.0,South,12.7,21.9,N/A,,Light Drizzle,190,2011-11-19 14:55:00
9:15 AM,48.2,35.8,62,29.85,10.0,South,13.8,-,N/A,,Overcast,180,2011-11-19 15:15:00
9:35 AM,50.4,34.9,55,29.84,10.0,South,15.0,21.9,N/A,,Overcast,180,2011-11-19 15:35:00
9:55 AM,51.3,35.6,55,29.83,10.0,South,17.3,-,N/A,,Overcast,180,2011-11-19 15:55:00
10:15 AM,52.7,36.0,53,29.83,10.0,South,17.3,26.5,N/A,,Mostly Cloudy,180,2011-11-19 16:15:00
10:35 AM,53.6,35.6,51,29.82,10.0,South,18.4,27.6,N/A,,Mostly Cloudy,190,2011-11-19 16:35:00
10:55 AM,53.1,36.5,53,29.81,10.0,South,18.4,24.2,N/A,,Overcast,190,2011-11-19 16:55:00
11:15 AM,53.6,37.6,55,29.79,10.0,South,21.9,26.5,N/A,,Overcast,190,2011-11-19 17:15:00
11:35 AM,54.1,39.0,57,29.76,10.0,South,17.3,24.2,N/A,,Overcast,180,2011-11-19 17:35:00
11:55 AM,54.9,39.6,56,29.75,10.0,South,21.9,29.9,N/A,,Overcast,180,2011-11-19 17:55:00
12:15 PM,54.9,40.5,58,29.75,10.0,South,21.9,29.9,N/A,,Overcast,190,2011-11-19 18:15:00
12:35 PM,55.2,41.7,60,29.75,10.0,South,17.3,27.6,N/A,,Overcast,190,2011-11-19 18:35:00
1:15 PM,55.4,44.6,67,29.74,10.0,South,20.7,27.6,N/A,,Overcast,190,2011-11-19 19:15:00
1:35 PM,55.9,44.2,65,29.74,10.0,South,16.1,-,N/A,,Overcast,190,2011-11-19 19:35:00
1:55 PM,57.2,45.3,65,29.74,10.0,South,21.9,28.8,N/A,,Overcast,190,2011-11-19 19:55:00
2:15 PM,57.2,45.5,65,29.72,10.0,South,23.0,27.6,N/A,,Overcast,190,2011-11-19 20:15:00
2:35 PM,57.0,45.7,66,29.72,10.0,South,21.9,28.8,N/A,,Overcast,180,2011-11-19 20:35:00
2:55 PM,57.2,45.7,65,29.72,10.0,South,20.7,27.6,N/A,,Overcast,180,2011-11-19 20:55:00
3:15 PM,57.2,45.9,66,29.72,10.0,South,20.7,-,N/A,,Overcast,180,2011-11-19 21:15:00
3:35 PM,57.2,46.4,67,29.72,10.0,South,21.9,28.8,N/A,,Overcast,170,2011-11-19 21:35:00
3:55 PM,57.2,46.8,68,29.71,10.0,South,24.2,31.1,N/A,,Overcast,170,2011-11-19 21:55:00
4:15 PM,57.2,47.3,69,29.72,10.0,South,21.9,28.8,N/A,,Overcast,170,2011-11-19 22:15:00
4:35 PM,57.2,47.7,70,29.72,10.0,South,19.6,26.5,N/A,,Overcast,180,2011-11-19 22:35:00
4:55 PM,57.2,48.2,72,29.72,10.0,South,19.6,25.3,N/A,,Overcast,180,2011-11-19 22:55:00
5:15 PM,57.2,48.4,72,29.72,10.0,South,18.4,21.9,N/A,,Overcast,180,2011-11-19 23:15:00
5:35 PM,57.2,48.7,73,29.72,10.0,South,17.3,25.3,N/A,,Overcast,190,2011-11-19 23:35:00
5:55 PM,57.2,50.0,77,29.72,10.0,South,20.7,28.8,N/A,,Overcast,190,2011-11-19 23:55:00
6:15 PM,57.6,49.3,74,29.73,10.0,South,19.6,25.3,N/A,,Overcast,190,2011-11-20 00:15:00
6:35 PM,57.6,49.5,74,29.73,10.0,SSW,20.7,26.5,N/A,,Overcast,200,2011-11-20 00:35:00
6:55 PM,57.6,50.0,76,29.73,10.0,South,21.9,25.3,N/A,,Overcast,190,2011-11-20 00:55:00
7:15 PM,57.2,50.0,77,29.73,10.0,South,20.7,27.6,N/A,,Overcast,190,2011-11-20 01:15:00
7:35 PM,57.9,50.2,75,29.74,10.0,SSW,17.3,24.2,N/A,,Overcast,200,2011-11-20 01:35:00
7:55 PM,59.0,51.8,77,29.75,10.0,SSW,21.9,27.6,N/A,,Overcast,210,2011-11-20 01:55:00
8:15 PM,58.3,50.9,76,29.76,10.0,SSW,18.4,25.3,N/A,,Overcast,210,2011-11-20 02:15:00
8:35 PM,58.5,50.9,76,29.78,10.0,SW,12.7,-,N/A,,Overcast,230,2011-11-20 02:35:00
8:55 PM,59.5,51.8,76,29.80,10.0,WSW,15.0,23.0,N/A,,Overcast,240,2011-11-20 02:55:00
9:15 PM,59.0,51.3,75,29.81,10.0,SW,15.0,-,N/A,,Overcast,230,2011-11-20 03:15:00
9:35 PM,59.0,51.6,76,29.82,10.0,SW,15.0,-,N/A,,Overcast,230,2011-11-20 03:35:00
9:55 PM,58.5,51.6,78,29.83,10.0,WSW,15.0,23.0,N/A,,Scattered Clouds,240,2011-11-20 03:55:00
10:15 PM,57.2,51.8,82,29.84,10.0,WSW,15.0,19.6,N/A,,Scattered Clouds,250,2011-11-20 04:15:00
10:35 PM,57.6,49.5,74,29.86,10.0,West,18.4,32.2,N/A,,Scattered Clouds,280,2011-11-20 04:35:00
10:55 PM,54.5,46.0,73,29.88,10.0,West,13.8,24.2,N/A,,Mostly Cloudy,280,2011-11-20 04:55:00
11:15 PM,53.1,43.9,71,29.90,10.0,West,15.0,23.0,N/A,,Mostly Cloudy,280,2011-11-20 05:15:00
11:35 PM,51.4,43.7,75,29.92,10.0,West,16.1,-,N/A,,Scattered Clouds,270,2011-11-20 05:35:00
11:55 PM,50.0,42.8,76,29.94,10.0,West,17.3,26.5,N/A,,Clear,280,2011-11-20 05:55:00